Find Starlink 31776

NORAD ID: 59603 Int'l Des: 2024-080 Owner: SPXS Country: US Constellation: starlink operational
LEOCIRCULAR

Live Position

Loading 3D Globe...

About Starlink 31776

Description loading...

Upcoming Passes

Passes for default location (London). Set your location on the main map for personalized predictions.

Altitude History

Loading altitude history...

Two-Line Element Set

1 59603U 24080C 26127.17139814 .00004655 00000-0 17844-3 0 9996
2 59603 43.0047 71.3546 0001349 256.2481 103.8221 15.27607841113434
Epoch: May 7, 2026 • Age: 11 hours

Current Status

Altitude 483.8 km
Velocity 7.62 km/s
Sub-Earth Point -6.23°S, 29.25°W
Launch Date Apr 28, 2024
Age 2 years
Type internet

Technical Details

Classification Payload
Mass 730.00 kg
Dry Mass 700.00 kg
Total Mass 730.00 kg
Length 0.30 m
Diameter 4.10 m
Span 29.00 m
Shape Box + pan
Manufacturer SPXS
Bus Type Starlink V2M
Phase Status In Orbit
Owner/State SPXS/US

Most Searched